www.pogodaiklimat.ru

Погода и климат >> Архив погоды >> Россия >> Нижегородская область >> Нижний Новгород


АРХИВ ПОГОДЫ в Нижнем Новгороде

Время (UTC), дата Ветер
(напр.,м/с)
 
Видим.   Явления Облачность Т
(С)
Тd
(С)
f
(%)
Тe
(С)
Тes
(С)
Комфортность P
(гПа)
Po
(гПа)
Тmin
(С)
Tmax
(С)
R
(мм)
R24
(мм)
S
(см)
12 18.06 З 1-2
{5}
10 км 8/6 600 м
[Cu hum Ci fib]
+24.8 +11.4 43 +26 +31 жарко 1008.7 990.8
15 18.06 З 2-5
{10}
10 км слаб. дождь 10/8 600 м
[Cu Sc Ac trans]
+20.1 +16.1 78 +23 +24 комфорт 1009.1 990.9 +26.4 0.0
18 18.06 З 1-1
{5}
10 км {дождь} 8/3 600 м
[Sc Ac trans Ci fib]
+19.2 +14.0 72 +22 +22 комфорт 1009.7 991.5
21 18.06 З 1-2
{3}
10 км ясно +16.3 +14.2 87 +17 +17 тепло 1010.1 991.7
00 19.06 З 1-3
{4}
10 км 3/0
[Ac trans]
+15.5 +14.8 96 +16 +16 тепло 1010.6 992.2
03 19.06 З 1-3
{3}
10 км ясно +16.6 +15.1 91 +17 +20 по сезону 1011.7 993.2 +14.9 0.0
06 19.06 СЗ 1-3
{4}
10 км ясно +21.3 +13.1 59 +24 +36 комфорт 1012.0 993.8
09 19.06 СЗ 2-6
{7}
10 км 4/4 1000 м
[Cu med, cong]
+24.0 +12.3 48 +26 +35 жарко 1012.0 994.0
12 19.06 СЗ 3-7
{8}
10 км 4/4 1000 м
[Cu med, cong]
+26.5 +11.4 39 +28 +33 жарко 1011.9 994.0
15 19.06 С 2-6
{8}
10 км 3/1 1000 м
[Cu hum Ci fib]
+26.3 +10.2 36 +27 +29 жарко 1011.8 993.9 +27.0
18 19.06 штиль 0
{6}
10 км 4/0
[Ci fib]
+22.1 +12.4 54 +25 +25 комфорт 1012.9 994.7
21 19.06 штиль 0
{2}
10 км ясно +17.4 +11.5 68 +17 +17 тепло 1014.2 995.7
00 20.06 З 1-2
{3}
10 км 3/0
[Ci fib]
+16.5 +11.1 70 +17 +17 тепло 1014.8 996.3
03 20.06 З 1-2
{4}
10 км 6/0
[Ci fib]
+18.7 +12.4 67 +21 +23 комфорт 1015.3 996.9 +16.1
06 20.06 ЮЗ 1-3
{4}
10 км 3/0
[Ci fib]
+24.3 +13.5 51 +27 +38 жарко 1015.3 997.3
09 20.06 С 1-5
{6}
10 км 8/6 1000 м
[Cu med, cong Ci fib]
+26.5 +8.2 31 +26 +33 жарко 1014.8 996.9
12 20.06 СЗ 1-4
{6}
10 км 6/5 1000 м
[Cu med, cong Ci fib]
+27.5 +10.0 33 +28 +34 жарко 1014.3 996.4
15 20.06 С 2-5
{6}
10 км 6/4 1000 м
[Cu med, cong Ci fib]
+26.7 +9.8 35 +27 +29 жарко 1014.3 996.4 +28.5
18 20.06 штиль 0
{5}
10 км 8/0
[Ci]
+22.4 +10.6 47 +24 +24 комфорт 1015.5 997.3
21 20.06 штиль 0
{1}
10 км 3/0
[Ci]
+17.6 +10.7 64 +18 +18 тепло 1016.7 998.1
00 21.06 штиль 0 10 км 4/0
[Ci]
+16.1 +10.9 71 +16 +16 тепло 1017.7 999.0
03 21.06 З 1-1
{2}
10 км 4/0
[Ci]
+20.4 +12.0 59 +23 +26 комфорт 1018.2 999.8 +15.0
06 21.06 З 1-3
{3}
10 км 8/0
[Ci]
+25.5 +11.4 41 +27 +37 жарко 1017.9 999.9
09 21.06 СЗ 1-2
{4}
10 км 8/6 600 м
[Cu hum Ci fib]
+27.6 +10.6 35 +28 +35 жарко 1017.3 999.4
12 21.06 СВ 1-1
{4}
10 км 9/8 600 м
[Cb cap Ci fib]
+27.0 +11.7 39 +28 +31 жарко 1016.9 998.9
15 21.06 ЮВ 1-1
{3}
10 км 9/8 600 м
[Cb cap Ci fib]
+26.8 +14.7 47 +29 +30 жарко 1016.1 998.1 +29.0
18 21.06 штиль 0
{2}
10 км 6/0
[Ac trans]
+23.6 +14.1 55 +26 +26 жарко 1015.8 997.7
21 21.06 штиль 0
{1}
10 км ясно +19.9 +13.0 64 +21 +21 комфорт 1016.4 997.9
00 22.06 штиль 0
{2}
10 км 6/0
[Ac trans Ci fib]
+20.1 +13.2 64 +22 +22 комфорт 1016.4 998.0
03 22.06 штиль 0
{2}
10 км 6/0
[Ac trans Ci fib]
+22.7 +16.3 67 +27 +29 душно 1016.2 998.0 +18.5
06 22.06 З 1-3
{4}
10 км 6/0
[Ac trans Ci fib]
+25.9 +15.6 53 +29 +38 душно 1015.5 997.6
09 22.06 З 1-6
{7}
10 км 9/0
[Ac As Cc]
+29.1 +14.0 40 +31 +39 жарко 1014.9 997.1
12 22.06 ЮЗ 1-6
{8}
10 км 8/3 1000 м
[Cu med, cong Ac trans]
+30.9 +15.4 39 +33 +38 душно 1013.8 996.2
15 22.06 ЮЗ 1-6
{8}
10 км 8/3 1000 м
[Cu med, cong Ac cast]
+30.4 +15.9 42 +33 +34 душно 1012.6 994.9 +31.5
18 22.06 ЮЗ 1-2
{6}
10 км 6/0
[Ac cast]
+26.5 +16.7 55 +30 +30 душно 1013.2 995.3
21 22.06 З 1-2
{5}
10 км 8/0
[Ac lent]
+24.8 +16.5 60 +28 +28 жарко 1013.6 995.6
00 23.06 З 1-2
{3}
10 км 6/0
[Ac lent Ci]
+22.2 +16.8 71 +27 +27 душно 1014.9 996.7
03 23.06 СЗ 1-3
{4}
10 км 4/0
[Ac lent]
+22.2 +16.8 71 +27 +28 душно 1015.8 997.6 +21.1
06 23.06 З 1-2
{6}
10 км в посл. час ливневой дождь 9/9 600 м
[Cb cap]
+20.8 +18.1 85 +26 +27 душно 1016.7 998.4 +19.9
09 23.06 СЗ 2-5
{5}
10 км 6/6 600 м
[Cb cap]
+26.2 +16.4 55 +30 +36 душно 1016.4 998.4
12 23.06 СЗ 2-3
{6}
10 км 6/6 600 м
[Cu med, cong]
+27.5 +15.6 48 +30 +35 жарко 1016.4 998.5
15 23.06 С 1-5
{5}
10 км 6/3 1000 м
[Cu hum Ci fib]
+25.9 +14.1 48 +28 +30 жарко 1015.8 997.8 +28.0 0.0
18 23.06 С 1-3
{6}
10 км 1/0
[Ci fib]
+22.8 +10.5 46 +25 +25 комфорт 1017.0 998.8
21 23.06 штиль 0
{3}
10 км 3/0
[Ac trans]
+19.7 +8.4 48 +20 +20 тепло 1018.4 999.9
00 24.06 штиль 0
{3}
10 км 8/0
[Ac trans Ci fib]
+17.4 +9.7 61 +17 +17 тепло 1018.5 999.9
03 24.06 З 1-2
{4}
10 км 10/3 600 м
[Sc Ac trans Ci fib]
+16.9 +11.2 69 +18 +19 тепло 1019.4 1000.8 +16.6
06 24.06 штиль 0
{2}
10 км 10/3 600 м
[Sc Ac trans Ci fib]
+17.4 +11.8 70 +17 +22 прохладно 1019.4 1000.8 +16.1
09 24.06 СЗ 1-5
{5}
10 км 6/5 1000 м
[Cu med, cong Ci fib]
+22.7 +10.5 46 +25 +33 комфорт 1018.5 1000.3
12 24.06 СЗ 2-6
{6}
10 км 6/5 1000 м
[Cu hum Ci fib]
+23.8 +6.2 32 +24 +29 комфорт 1018.1 999.9
15 24.06 С 2-7
{8}
10 км 9/3 600 м
[Sc diur, vesp Ac trans Ci]
+22.3 +5.6 34 +23 +24 комфорт 1018.6 1000.3 +24.7
18 24.06 С 2-5
{8}
10 км 3/0
[Ac cast]
+19.3 +5.5 40 +20 +20 тепло 1020.0 1001.5
21 24.06 СЗ 1-2
{5}
10 км 3/0
[Ac cast]
+15.9 +7.6 58 +17 +17 по сезону 1020.9 1002.2
00 25.06 С 1-5
{5}
10 км 1/0
[Ac cast]
+14.2 +8.2 67 +15 +15 по сезону 1021.8 1002.9
03 25.06 С 1-5
{7}
10 км 1/0
[Ci fib]
+14.8 +7.8 63 +15 +18 по сезону 1022.6 1003.8 +13.1
06 25.06 С 2-6
{7}
10 км 4/3 1000 м
[Cu hum Ci fib]
+18.1 +7.7 51 +19 +26 по сезону 1023.1 1004.5

 

Местоположение метеостанции Нижний Новгород (Нижегородская область, Россия): широта 56.27 долгота 44.00 высота над уровнем моря 157 м.

В архиве по умолчанию представлена погода в Нижнем Новгороде за последнюю неделю. Архивные данные за месяц целиком и за предыдущие месяцы, начиная с января 2011 года, Вы можете получить, выбрав интересующий диапазон дат из раскрывающегося списка и нажав кнопку "Ввод!".


*Определитесь, кто Вы:
робот инопланетянин человек

Внимание! Время в таблицах - всемирное. Для получения местного времени необходимо прибавить поправку, которая равна 3 ч.

Смотрите также архив погоды в соседних городах и на ближайших метеорологических станциях:

Погода в Нижнем Новгороде аэропорт (Нижегородская область, Россия) (15 км)
Погода в Дальнем Константиново (Нижегородская область, Россия) (53 км)
Погода в Балахне (Нижегородская область, Россия) (54 км)
Погода в Волжской ГМО (Нижегородская область, Россия) (57 км)
Погода в Семенове (Нижегородская область, Россия) (60 км)
Погода в Павлово (Нижегородская область, Россия) (70 км)
Погода в Лысково (Нижегородская область, Россия) (70 км)
Погода в Арзамасе (Нижегородская область, Россия) (101 км)
Погода в Воскресенском (Нижегородская область, Россия) (106 км)
Погода в Вязниках (Владимирская область, Россия) (113 км)

Пояснения к столбцам:

Ветер - указаны скорость ветра в м/с - средняя за 10 мин, порывы в срок и между сроками (в фигурных скобках) и направление, откуда дует ветер: С - северный, СВ - северо-восточный, В - восточный, ЮВ - юго-восточный, Ю - южный, ЮЗ - юго-западный, З - западный, СЗ - северо-западный.
Видимость - горизонтальная дальность видимости в метрах или километрах. При видимости от 1 до 10 км при отсутствии осадков обычно наблюдается дымка, при ухудшении видимости до 1 км и менее - туман. В сухую погоду видимость может ухудшаться дымом, пылью или мглою.
Явления - указаны атмосферные явления, наблюдавшиеся в срок или в последний час перед сроком; фигурными скобками обозначены явления, наблюдавшиеся между сроками (за 1-3 часа до срока); квадратными скобками обозначены град или гололедные отложения с указанием их диаметра в мм.
Облачность - указаны через наклонную черту общая и нижняя облачность в баллах и высота нижней границы облаков в метрах; квадратными скобками обозначены формы облаков: Ci - перистые, Cs - перисто-слоистые, Cc - перисто-кучевые, Ac - высококучевые, As - высокослоистые, Sc - слоисто-кучевые, Ns - слоисто-дождевые, Cu - кучевые, Cb - кучево-дождевые. Подробнее классификацию облаков см. в Атласе облаков (PDF).
T - Температура воздуха - температура, измеренная на высоте 2 м над землей.
Td - Температура точки росы - температура, при понижении до которой содержащийся в воздухе водяной пар достигнет насыщения.
f - Относительная влажность воздуха - влажноcть воздуха, измеренная на высоте 2 м над землей.
Te - Эффективная температура - температура, которую ощущает одетый по сезону человек в тени. Характеристика душности погоды. При расчете учитывается влияние влажности воздуха и скорости ветра на теплоощущения человека.
Tes - Эффективная температура на солнце - температура, которую ощущает человек, с поправкой на солнечный нагрев. Характеристика знойности погоды. Зависит от высоты солнца над горизонтом, облачности и скорости ветра. Ночью, в пасмурную погоду, а также при ветре 12 м/с и более поправка равна нулю.
P - Атмосферное давление - приведенное к уровню моря атмосферное давление.
Po - Атмосферное давление - измеренное на уровне метеостанции атмосферное давление.
Tmin - Минимальная температура - минимум температуры воздуха на высоте 2 м над землей.
Tmax - Максимальная температура - максимум температуры воздуха на высоте 2 м над землей.
R - Количество осадков - Количество выпавших осадков за период времени, мм. При наведении курсора мыши на число - период времени, за который выпало указанное количество осадков.
R24 - Количество осадков - Количество выпавших осадков за 24 часа, мм.
S - Снежный покров - Высота снежного покрова, см. При наведении курсора мыши на число - состояние снежного покрова и степень покрытия местности в баллах.